Temp
30 29 29 29 29 29 29 29 29 30 29 28 29 29 29 29 30 29 30 30 29 26 25 24 24 23 23 23 22 22 20 20 20 21 20 20 20 19 20 19 18 17 17 16
29 28 28 29 29 29 29 28 29 29 29 27 29 29 29 28 28 29 28 28 26 25 24 23 22 21 21 21 21 21 20 19 19 19 19 19 19 19 19 19 18 17 17 16
27 27 28 28 28 28 29 28 27 26 28 29 28 28 27 27 27 27 27 27 26 25 24 23 21 20 20 20 20 20 19 18 17 18 18 18 18 18 18 18 17 17 15 14
28 28 27 28 27 27 27 27 26 26 26 26 28 26 27 27 26 26 26 25 25 25 24 23 21 20 19 19 19 19 19 18 17 16 16 16 16 16 15 15 15 15 14 14
27 27 27 27 26 26 26 26 26 26 26 27 28 27 27 27 25 25 25 24 24 23 23 22 21 20 18 18 18 18 19 18 17 16 16 15 15 14 14 14 14 13 13 12
27 28 27 26 26 26 26 26 27 27 26 24 27 27 24 26 26 25 24 23 23 23 22 22 22 21 19 19 18 18 18 18 18 17 16 15 14 14 14 13 13 12 11 11
27 26 26 26 26 27 27 26 24 22 23 23 26 25 25 26 26 25 23 22 22 22 22 22 22 21 20 19 19 18 18 17 17 16 16 15 14 13 13 12 11 10 9 9
26 23 26 26 25 24 26 25 22 21 21 22 26 25 24 25 24 24 23 23 23 22 22 22 21 21 20 19 19 18 17 17 16 16 14 14 13 12 11 10 9 9 9 8
25 24 25 25 25 25 25 24 24 23 19 20 24 24 25 24 23 23 23 23 22 22 22 22 21 21 20 19 18 17 17 16 16 14 13 13 11 11 10 9 9 8 8 8
24 24 25 25 25 25 25 25 22 22 20 21 24 24 22 23 23 23 23 22 22 22 22 21 21 20 19 18 17 16 16 15 15 14 13 12 11 11 10 9 9 8 7 7
24 24 24 25 24 24 24 24 23 24 22 20 20 22 24 24 24 23 22 22 21 21 21 21 20 18 18 17 16 16 15 14 13 12 12 11 11 10 10 9 7 6 6 6
22 23 21 24 24 24 24 23 23 19 20 20 19 20 24 23 23 23 22 21 21 21 20 19 18 18 17 16 16 15 14 13 12 11 11 11 10 8 7 7 6 6 5 6
22 22 21 22 23 23 23 24 23 21 18 17 17 19 24 24 21 22 21 21 21 20 19 19 18 17 16 15 15 15 13 13 12 11 11 10 9 8 6 6 6 5 6 6
19 23 22 20 22 23 22 23 23 22 18 18 18 20 22 23 21 21 21 20 20 19 19 18 16 15 15 15 14 14 13 12 11 11 10 9 9 7 6 6 6 5 5 5
21 20 21 21 22 22 22 22 22 21 21 19 20 21 22 21 21 20 18 18 17 18 17 15 14 13 14 14 14 13 12 12 11 10 10 9 9 7 6 6 5 5 5 5
21 18 17 18 22 21 20 20 20 21 22 22 20 20 22 22 19 18 18 18 17 15 14 13 12 13 14 14 13 13 12 12 11 10 10 9 8 6 6 5 5 5 5 4
19 18 16 16 16 16 15 18 21 21 21 21 18 20 22 18 17 17 16 15 14 13 12 13 13 14 13 13 13 13 12 12 11 10 10 10 7 6 6 5 5 5 4 4
16 16 13 14 13 15 20 22 22 20 21 21 21 21 19 17 17 17 14 13 12 13 13 13 13 13 13 13 12 12 12 11 11 10 8 9 7 6 6 5 5 4 4 3
19 15 13 14 16 18 19 20 19 18 17 20 19 17 17 16 15 15 13 12 11 12 13 13 13 13 13 12 12 11 10 10 11 10 7 5 6 6 5 5 5 4 3 3
17 16 15 13 12 14 19 20 19 19 16 17 16 15 14 13 10 11 12 11 13 13 13 13 13 13 12 11 10 10 10 10 10 7 6 6 7 6 5 3 2 3 3 3
12 13 13 13 13 15 19 19 18 15 14 15 14 13 12 11 10 12 12 13 13 13 13 13 13 12 11 10 9 9 9 9 8 7 6 5 4 2 2 0 2 3 3 2
12 12 11 13 13 13 19 18 13 15 15 14 13 12 11 11 12 13 13 13 13 13 12 12 11 11 10 9 9 8 8 7 6 5 4 4 3 2 1 1 2 2 2 1
17 16 16 15 15 17 17 16 14 14 13 12 11 12 12 12 12 12 12 13 12 12 11 10 10 9 9 9 8 8 7 5 4 4 3 2 1 1 1 -0 1 2 1 -1
19 20 16 16 18 19 16 14 13 12 11 11 11 12 12 12 12 12 12 12 11 10 10 9 9 9 9 8 8 7 5 4 3 2 2 2 2 2 2 1 1 1 -0 -1
18 19 17 17 18 17 13 12 11 12 11 11 13 12 12 12 12 12 12 11 10 10 9 9 9 8 8 7 6 5 3 2 1 1 1 1 1 1 1 0 -0 -1 -1 -2
17 16 15 14 15 15 13 11 11 11 12 12 12 12 12 12 11 11 10 10 9 8 8 8 8 7 6 5 4 3 2 1 0 -1 -1 -1 -2 -1 -1 -1 -1 -2 -2 -3
Height
763 774 780 775 774 775 774 776 778 771 775 785 782 778 773 773 773 777 775 776 780 790 799 802 805 808 811 817 819 820 821 825 828 829 830 830 831 830 831 831 831 832 833 832
772 782 777 771 773 777 777 783 782 776 778 788 780 781 776 781 785 780 782 784 791 799 806 811 815 816 820 823 824 825 827 830 831 831 832 833 832 832 831 831 830 832 831 830
786 783 775 778 781 786 777 789 794 797 784 779 785 788 787 788 790 789 790 790 796 803 810 814 820 824 826 827 827 829 831 832 833 832 832 832 831 830 830 829 827 826 827 827
781 779 783 784 788 791 796 789 794 795 796 802 776 806 790 793 798 798 799 801 805 808 812 817 823 827 828 829 830 832 832 833 834 834 834 834 833 831 831 829 828 826 826 827
789 787 787 788 795 792 795 790 794 794 796 792 782 796 785 786 802 805 805 807 810 814 817 821 825 828 830 832 833 834 834 833 833 834 835 834 833 833 832 831 829 827 826 824
785 779 786 792 790 789 787 789 785 787 792 811 786 786 807 794 796 803 808 812 814 818 820 823 825 826 829 831 833 834 834 833 833 832 832 832 831 831 830 829 828 827 826 824
788 791 788 789 793 786 787 795 813 827 815 818 786 798 799 794 794 799 811 816 818 820 822 823 825 826 828 830 832 832 833 833 832 830 830 829 829 829 829 828 828 826 825 824
797 817 795 792 800 805 797 801 824 840 835 823 791 802 808 796 801 805 809 813 816 820 823 824 826 827 828 829 830 831 831 832 831 830 829 829 828 827 827 827 827 827 825 823
800 807 796 798 797 798 803 813 805 820 835 837 806 800 798 801 807 807 810 812 816 820 823 824 825 826 827 828 829 830 830 830 830 829 829 829 828 827 825 825 826 824 823 820
801 811 800 799 798 799 803 803 822 820 846 841 810 805 816 811 811 809 809 813 816 817 820 823 824 826 828 829 829 829 829 829 828 828 828 827 826 826 825 825 824 822 820 817
800 805 811 801 809 812 809 810 813 812 825 843 844 825 803 806 806 811 812 812 816 819 821 822 825 827 830 830 830 829 828 827 828 829 829 828 826 824 823 823 822 820 818 815
810 812 826 811 806 805 808 814 815 837 840 836 841 836 803 805 807 810 813 815 817 819 821 824 827 828 828 828 827 827 826 826 827 829 828 827 825 822 821 821 821 819 817 814
813 817 830 821 818 812 814 809 815 825 841 849 855 836 800 800 815 812 817 815 817 819 823 824 826 827 827 827 826 826 826 826 827 827 826 825 823 820 820 820 819 816 814 812
818 813 823 835 823 815 821 815 811 817 841 838 838 827 811 803 812 817 817 816 817 820 822 823 826 827 827 826 825 825 825 824 824 825 824 822 820 817 817 816 816 815 812 810
815 827 820 820 817 816 818 818 815 818 816 831 823 817 810 811 813 814 822 822 824 823 824 828 831 830 828 825 824 824 823 823 821 820 820 819 816 813 813 812 812 812 810 807
817 834 837 836 816 820 826 818 816 812 809 810 815 816 804 807 816 821 822 823 824 828 831 832 832 829 825 824 823 822 821 818 817 814 812 810 809 811 810 809 809 808 806 804
825 833 841 844 838 838 840 824 812 812 809 813 825 815 806 819 823 826 827 828 833 835 836 834 832 827 825 823 821 819 815 815 814 814 808 805 802 802 802 803 804 804 802 801
837 839 852 854 853 852 814 806 805 812 810 811 810 808 816 826 827 825 833 837 838 836 834 831 828 825 823 820 818 815 812 810 807 804 801 797 795 797 795 797 799 798 798 797
822 841 856 854 843 830 815 811 818 823 825 813 815 820 823 825 827 831 838 842 840 836 833 828 824 823 820 818 817 814 811 808 804 800 799 799 799 795 793 792 795 794 795 794
831 835 845 858 861 848 817 811 813 816 831 820 824 829 834 835 842 840 839 839 834 831 828 825 822 819 820 817 815 813 810 807 802 800 799 796 794 794 789 790 795 794 792 790
853 850 850 852 855 839 815 812 815 834 838 830 833 837 838 841 843 839 836 833 831 829 826 823 821 818 817 815 814 812 810 806 803 800 797 795 794 791 790 792 792 791 789 788
845 850 857 850 852 846 810 814 837 829 827 833 836 838 841 839 836 833 832 831 829 827 825 823 821 819 817 815 813 810 807 805 802 799 797 795 792 791 789 788 788 788 786 785
822 821 825 831 829 814 813 821 825 827 832 836 838 837 838 834 833 833 832 829 827 826 825 824 822 819 816 813 809 806 804 801 801 799 797 794 792 790 789 788 787 785 785 784
805 800 814 816 809 807 814 822 825 831 833 833 837 834 833 834 834 832 830 828 827 826 825 822 821 817 813 810 807 805 803 801 800 798 796 794 791 789 787 787 785 785 784 784
807 804 807 807 803 806 819 824 827 828 831 832 831 833 832 832 831 830 828 826 826 824 822 820 817 813 810 808 806 804 803 801 800 798 796 794 791 788 787 786 786 785 784 784
806 806 812 811 805 809 816 824 826 827 827 828 831 832 831 831 830 829 828 827 825 822 821 817 814 812 808 806 804 803 801 800 799 797 796 794 791 789 787 786 786 785 784 783
Wind_Speed
7 9 2 13 9 6 9 6 6 7 8 3 10 9 9 9 6 3 2 3 9 18 20 24 20 19 16 11 14 15 11 10 5 3 4 7 10 10 9 7 8 6 11 12
4 3 7 5 7 6 5 5 4 3 5 4 8 10 11 8 5 6 8 8 16 15 14 18 19 21 18 14 13 12 12 10 9 9 6 6 7 6 9 10 5 12 11 12
9 10 5 4 2 8 4 4 8 7 10 9 10 9 13 10 7 12 13 13 13 12 11 12 16 16 15 15 14 13 11 9 10 8 7 7 8 9 10 12 17 17 15 22
8 3 2 1 2 7 7 6 5 8 9 9 13 4 14 14 11 11 12 10 10 10 10 12 14 13 14 14 12 10 7 7 7 8 7 9 13 14 17 17 19 22 19 20
6 4 1 2 6 6 5 6 7 8 10 11 12 7 14 16 13 12 11 10 9 9 9 9 12 14 13 10 8 6 6 3 2 4 7 9 12 15 16 17 16 20 15 21
8 3 6 7 4 2 7 9 11 8 9 4 13 3 5 8 13 12 11 9 9 7 6 8 8 13 14 8 5 5 8 10 10 7 8 9 10 12 14 16 18 16 20 22
6 5 6 5 10 7 6 8 4 2 4 2 5 3 8 10 9 13 12 9 7 6 5 6 7 10 6 4 3 4 8 12 13 15 12 9 9 12 14 17 17 21 23 22
8 7 4 5 6 7 5 6 2 4 4 6 7 3 9 12 12 11 10 9 6 6 3 2 3 4 6 8 10 11 11 13 15 13 13 15 14 12 14 15 19 19 19 20
3 6 6 5 5 7 6 5 4 3 2 2 5 8 11 12 11 9 8 4 7 3 3 4 6 6 7 7 9 9 10 14 14 16 14 13 14 16 14 15 16 15 18 18
4 2 3 3 3 2 4 1 2 1 2 3 7 6 7 10 9 9 3 7 5 6 6 7 9 13 15 17 13 13 13 15 15 15 13 14 15 16 15 16 16 16 14 16
7 3 5 5 6 7 1 2 2 3 1 2 3 3 8 7 5 6 7 6 4 5 6 6 12 13 12 11 12 14 14 13 13 15 17 18 18 16 13 12 16 17 17 15
4 2 1 7 6 4 3 5 4 1 4 1 1 6 4 3 7 8 8 10 6 4 7 10 13 14 13 13 11 16 11 11 13 17 18 17 17 11 15 17 19 19 17 17
4 1 3 8 5 4 0 3 2 4 2 5 4 4 3 2 11 6 5 4 3 6 8 8 8 9 16 16 17 12 12 12 14 17 17 19 17 11 14 13 14 14 15 17
3 1 1 2 6 7 7 10 8 10 4 6 8 14 15 12 8 6 8 7 8 9 10 10 11 16 17 16 14 12 15 11 15 17 17 17 16 8 9 11 14 16 18 18
3 1 4 7 9 8 9 11 11 12 12 9 11 16 11 8 7 10 14 13 14 14 12 13 12 15 15 16 15 16 14 17 14 16 16 16 19 5 7 10 14 17 18 17
3 1 3 3 5 10 13 15 13 13 13 10 11 12 11 5 14 13 13 16 13 12 12 14 14 17 16 15 16 15 16 16 16 15 16 20 7 9 10 11 14 16 16 15
2 1 2 3 9 10 3 3 6 8 7 9 5 10 8 14 13 14 13 13 11 13 12 13 14 16 16 18 20 22 17 19 18 24 21 20 10 12 10 12 13 15 13 15
4 2 2 2 4 2 4 14 11 7 6 9 11 9 13 10 12 16 11 11 13 13 13 13 15 16 16 18 22 22 20 22 21 21 25 25 10 11 9 11 13 10 12 15
4 3 2 1 3 9 9 3 5 5 9 9 7 12 12 14 16 7 10 12 11 12 15 17 18 21 20 21 21 24 27 30 29 25 23 25 17 13 10 11 11 9 13 17
4 4 2 2 2 3 3 7 5 5 8 9 11 10 11 12 7 5 11 12 14 16 18 21 22 19 19 18 23 24 25 28 25 25 22 17 21 21 7 8 11 13 15 13
2 2 3 5 5 6 8 6 1 3 3 8 7 6 9 5 4 9 10 12 17 19 20 23 24 23 24 25 24 23 25 25 28 28 26 22 16 12 8 7 12 15 14 14
7 6 4 4 3 6 1 3 2 5 7 6 7 6 5 6 7 8 10 12 17 19 23 25 24 24 23 23 23 21 22 25 25 24 25 23 17 15 8 8 11 12 13 9
4 6 4 9 5 7 7 4 6 7 7 5 5 4 7 7 8 10 10 13 18 22 23 25 23 25 26 23 21 22 22 20 21 22 20 21 19 13 11 11 12 12 10 11
3 7 3 3 8 9 6 10 11 6 4 3 4 5 5 7 8 10 12 14 18 20 22 21 25 23 22 23 22 19 20 21 20 16 19 18 17 14 11 8 12 13 12 10
4 6 6 9 11 4 9 7 4 3 1 3 2 5 5 7 11 12 12 16 18 20 21 25 22 21 23 27 23 22 20 18 14 16 16 18 17 12 8 8 11 11 9 10
5 7 5 7 1 3 5 6 3 2 4 2 3 6 9 12 11 17 16 19 20 22 24 23 23 24 22 24 23 22 18 10 12 12 14 15 16 13 10 10 12 12 14 13
Wind_Direction
209 256 23 31 22 360 339 2 328 132 84 322 240 273 72 46 307 170 158 50 69 71 63 62 68 75 76 66 75 59 70 58 41 17 11 349 4 358 345 335 354 345 325 308
229 195 53 24 15 341 326 343 327 50 91 301 286 244 91 79 7 67 84 83 86 84 81 80 74 71 73 71 76 71 70 56 36 40 14 348 341 311 293 295 308 341 318 311
61 62 61 359 39 341 237 332 29 328 325 265 268 253 126 115 99 77 64 76 90 101 105 92 80 77 78 69 68 71 68 60 39 18 24 358 335 335 328 323 311 317 313 329
65 58 42 348 57 350 318 40 324 293 283 280 179 312 144 145 127 110 96 87 89 90 81 88 93 93 80 71 67 68 56 47 39 9 12 354 335 345 344 345 332 333 335 322
112 142 12 280 30 340 11 341 303 289 277 276 235 235 156 151 153 127 99 90 82 66 74 96 102 92 79 74 62 38 4 29 55 8 351 345 349 337 328 329 328 331 333 339
84 61 35 8 305 302 307 275 260 256 252 262 260 223 89 184 135 124 109 85 79 82 101 102 110 132 133 108 78 13 342 356 352 342 329 321 323 322 330 329 339 346 344 336
161 78 108 345 296 188 293 322 284 266 194 247 23 274 99 113 85 107 109 106 88 68 62 59 53 32 39 63 350 352 344 332 339 356 349 341 345 347 351 348 353 352 338 330
189 152 335 34 23 347 338 322 51 318 354 338 221 299 121 117 109 114 121 120 108 93 97 66 60 20 24 18 12 1 352 341 332 344 4 349 348 3 5 358 353 339 331 327
318 100 104 57 2 345 356 50 5 279 28 302 262 100 118 126 126 131 127 141 89 90 43 316 23 4 350 353 354 352 329 328 350 354 353 357 4 352 355 349 338 327 323 322
50 139 44 85 236 104 33 19 310 5 307 300 345 357 97 164 168 177 120 56 35 25 29 359 359 8 5 0 356 350 348 342 343 344 352 346 346 341 334 330 315 327 340 338
359 330 116 242 33 6 5 10 342 324 53 309 323 65 35 73 60 34 13 24 73 22 356 359 10 31 356 345 336 338 340 348 350 354 347 340 333 322 322 344 350 342 337 334
38 69 310 70 76 29 332 339 326 23 327 310 218 276 50 47 29 4 6 28 12 13 7 19 357 355 355 342 344 339 356 354 350 337 326 329 331 356 356 344 334 326 315 326
355 84 271 147 160 182 356 5 347 110 109 249 248 276 221 99 0 323 13 10 9 41 8 351 338 340 350 337 333 331 350 337 339 327 330 328 331 336 341 325 321 319 321 320
322 33 355 322 322 339 309 304 283 266 196 242 263 287 305 332 38 323 354 357 6 4 347 356 0 351 336 328 320 334 322 341 328 329 326 315 322 315 318 321 321 318 317 317
1 216 355 318 313 312 308 297 290 281 272 260 271 273 290 12 331 23 32 7 350 336 348 6 344 327 314 321 326 321 334 321 319 317 306 306 302 289 319 318 313 312 315 321
73 112 16 258 278 346 305 297 288 280 277 282 317 309 335 332 45 16 356 341 340 12 348 344 335 314 314 323 325 318 305 305 309 302 299 288 309 324 311 311 305 303 315 327
77 1 47 265 352 317 315 251 350 322 322 311 287 285 336 29 14 358 358 7 5 349 340 324 309 309 336 332 327 318 316 315 329 307 315 304 277 265 275 295 300 305 321 320
131 69 92 281 316 351 35 325 289 319 332 329 306 324 57 20 0 351 41 13 344 333 325 314 309 321 322 322 316 321 324 304 298 304 297 287 253 256 269 277 283 298 316 312
153 146 122 263 271 299 297 68 33 356 311 324 12 13 3 359 353 350 27 355 323 317 313 307 323 324 320 328 329 342 336 326 321 313 353 334 304 272 273 277 295 319 311 304
45 79 203 139 234 260 331 56 72 302 270 35 7 14 1 354 328 310 334 325 315 315 323 318 314 319 323 342 345 338 332 327 333 351 322 317 315 306 308 335 317 309 308 322
96 171 198 218 257 277 285 22 16 253 13 25 40 19 355 337 271 299 305 306 324 321 320 336 338 340 342 341 341 338 327 328 339 347 348 349 343 332 326 329 306 313 320 339
170 160 192 201 237 261 308 342 132 345 351 33 15 23 315 306 299 313 338 325 321 334 340 341 341 338 339 338 332 328 333 336 337 342 336 330 319 302 279 261 279 307 323 352
201 183 190 185 215 210 110 127 86 63 70 39 344 319 284 299 332 337 315 324 337 341 341 340 339 336 323 321 325 330 330 347 341 334 336 337 328 327 320 319 300 342 357 12
276 282 233 207 250 276 55 83 95 64 18 347 236 280 319 329 323 315 330 336 339 336 329 336 327 313 317 329 338 347 355 347 337 337 332 328 321 310 306 338 344 354 359 350
248 297 276 269 269 286 113 123 118 33 131 228 251 331 327 320 328 328 326 328 327 325 335 327 319 327 335 335 341 348 345 340 338 336 333 328 346 354 351 1 356 353 342 334
245 253 250 261 57 215 108 137 120 167 198 87 339 332 332 323 334 341 336 334 336 338 325 323 328 327 333 335 337 335 329 328 328 332 331 339 342 345 353 353 334 328 331 326